This demonstration page uses our WeatherBlox Daily Observations layout. Learn more.

Left ArrowRight Arrow

Hourly Observations for February 12, 2019

Temp ( °F °C ) Dew Point ( °F °C ) Humidity (%) Winds ( mph kmh ) Pressure ( in mb ) Visibility ( mi km ) Precip ( " mm )
6:03 am 06:03 Cloudy with Light Rain 41 5 39 4 93 93 Calm 29.63 1003 3 5 N/A
6:45 am 06:45 Cloudy with Light Rain 41 5 39 4 93 93 SSE 6 9 29.62 1003 1 2 N/A
7:45 am 07:45 Cloudy with Light Rain 41 5 39 4 93 93 WSW 7 11 29.63 1003 1 1 N/A
8:25 am 08:25 Cloudy with Light Rain 45 7 43 6 93 93 SW 5 7 29.65 1004 7 11 N/A
8:45 am 08:45 Cloudy 45 7 43 6 93 93 SW 5 7 29.64 1004 10 16 N/A
9:45 am 09:45 Cloudy 46 8 45 7 93 93 SW 6 9 29.63 1004 10 16 N/A
10:50 am 10:50 Cloudy 48 9 45 7 87 87 SW 10 17 29.64 1004 10 16 N/A
11:45 am 11:45 Cloudy 48 9 45 7 87 87 SW 12 19 29.63 1003 10 16 N/A
12:45 pm 12:45 Cloudy with Mist and Fog 46 8 45 7 93 93 W 20 31 29.63 1004 5 8 N/A
1:45 pm 13:45 Cloudy 41 5 37 3 87 87 W 18 30 29.66 1004 10 16 N/A
2:49 pm 14:49 Cloudy 37 3 32 0 81 81 W 22 35 29.70 1006 10 16 N/A
3:45 pm 15:45 Cloudy 36 2 30 -1 81 81 W 23 37 29.73 1007 10 16 N/A
4:49 pm 16:49 Cloudy 36 2 28 -2 75 75 W 32 52 29.77 1008 10 16 N/A
5:48 pm 17:48 Cloudy 32 0 25 -4 75 75 W 25 41 29.82 1010 10 16 N/A
6:24 pm 18:24 Cloudy 32 0 21 -6 64 64 W 32 52 29.85 1011 8 13 N/A
6:45 pm 18:45 Cloudy 32 0 21 -6 64 64 W 25 41 29.88 1012 7 11 N/A
7:11 pm 19:11 Windy with Snow Likely 32 0 21 -6 64 64 W 21 33 29.90 1012 8 13 N/A
7:51 pm 19:51 Windy with Snow Likely 32 0 21 -6 64 64 W 21 33 29.90 1012 8 13 N/A
8:51 pm 20:51 Windy with Snow Likely 30 -1 21 -6 69 69 W 25 41 29.92 1013 8 13 N/A
9:56 pm 21:56 Windy with Snow Likely 30 -1 21 -6 69 69 W 22 35 29.92 1013 7 11 N/A

Powered by AerisWeather